Year,Month,Day,Hour,Minute,Value (Times are PST for temperature in C)
2014,04,20,00,00,8.10
2014,04,20,00,01,8.10
2014,04,20,00,02,8.10
2014,04,20,00,03,8.10
2014,04,20,00,04,8.10
2014,04,20,00,05,8.10
2014,04,20,00,06,8.10
2014,04,20,00,07,8.10
2014,04,20,00,08,8.10
2014,04,20,00,09,8.10
2014,04,20,00,10,8.10
2014,04,20,00,11,8.10
2014,04,20,00,12,8.10
2014,04,20,00,13,8.10
2014,04,20,00,14,8.00
2014,04,20,00,15,8.00
2014,04,20,00,16,8.00
2014,04,20,00,17,8.00
2014,04,20,00,18,8.10
2014,04,20,00,19,8.10
2014,04,20,00,20,8.10
2014,04,20,00,21,8.10
2014,04,20,00,22,8.10
2014,04,20,00,23,8.10
2014,04,20,00,24,8.10
2014,04,20,00,25,8.10
2014,04,20,00,26,8.10
2014,04,20,00,27,8.20
2014,04,20,00,28,8.20
2014,04,20,00,29,8.20
2014,04,20,00,30,8.20
2014,04,20,00,31,8.20
2014,04,20,00,32,8.20
2014,04,20,00,33,8.20
2014,04,20,00,34,8.20
2014,04,20,00,35,8.20
2014,04,20,00,36,8.20
2014,04,20,00,37,8.20
2014,04,20,00,38,8.20
2014,04,20,00,39,8.20
2014,04,20,00,40,8.20
2014,04,20,00,41,8.20
2014,04,20,00,42,8.20
2014,04,20,00,43,8.20
2014,04,20,00,44,8.20
2014,04,20,00,45,8.20
2014,04,20,00,46,8.20
2014,04,20,00,47,8.20
2014,04,20,00,48,8.20
2014,04,20,00,49,8.20
2014,04,20,00,50,8.20
2014,04,20,00,51,8.20
2014,04,20,00,52,8.20
2014,04,20,00,53,8.20
2014,04,20,00,54,8.20
2014,04,20,00,55,8.20
2014,04,20,00,56,8.20
2014,04,20,00,57,8.20
2014,04,20,00,58,8.20
2014,04,20,00,59,8.20
2014,04,20,01,00,8.20
2014,04,20,01,01,8.20
2014,04,20,01,02,8.30
2014,04,20,01,03,8.30
2014,04,20,01,04,8.30
2014,04,20,01,05,8.30
2014,04,20,01,06,8.30
2014,04,20,01,07,8.30
2014,04,20,01,08,8.30
2014,04,20,01,09,8.30
2014,04,20,01,10,8.30
2014,04,20,01,11,8.30
2014,04,20,01,12,8.30
2014,04,20,01,13,8.30
2014,04,20,01,14,8.30
2014,04,20,01,15,8.30
2014,04,20,01,16,8.30
2014,04,20,01,17,8.30
2014,04,20,01,18,8.20
2014,04,20,01,19,8.20
2014,04,20,01,20,8.20
2014,04,20,01,21,8.20
2014,04,20,01,22,8.20
2014,04,20,01,23,8.20
2014,04,20,01,24,8.20
2014,04,20,01,25,8.20
2014,04,20,01,26,8.20
2014,04,20,01,27,8.20
2014,04,20,01,28,8.20
2014,04,20,01,29,8.20
2014,04,20,01,30,8.10
2014,04,20,01,31,8.10
2014,04,20,01,32,8.10
2014,04,20,01,33,8.10
2014,04,20,01,34,8.00
2014,04,20,01,35,8.00
2014,04,20,01,36,8.00
2014,04,20,01,37,8.00
2014,04,20,01,38,8.00
2014,04,20,01,39,8.00
2014,04,20,01,40,8.00
2014,04,20,01,41,8.00
2014,04,20,01,42,8.00
2014,04,20,01,43,8.00
2014,04,20,01,44,8.00
2014,04,20,01,45,7.90
2014,04,20,01,46,7.90
2014,04,20,01,47,7.90
2014,04,20,01,48,7.90
2014,04,20,01,49,7.90
2014,04,20,01,50,7.90
2014,04,20,01,51,7.80
2014,04,20,01,52,7.80
2014,04,20,01,53,7.80
2014,04,20,01,54,7.80
2014,04,20,01,55,7.80
2014,04,20,01,56,7.80
2014,04,20,01,57,7.80
2014,04,20,01,58,7.80
2014,04,20,01,59,7.80
2014,04,20,02,00,7.80
2014,04,20,02,01,7.80
2014,04,20,02,02,7.80
2014,04,20,02,03,7.80
2014,04,20,02,04,7.80
2014,04,20,02,05,7.80
2014,04,20,02,06,7.80
2014,04,20,02,07,7.80
2014,04,20,02,08,7.80
2014,04,20,02,09,7.80
2014,04,20,02,10,7.80
2014,04,20,02,11,7.80
2014,04,20,02,12,7.80
2014,04,20,02,13,7.80
2014,04,20,02,14,7.80
2014,04,20,02,15,7.80
2014,04,20,02,16,7.90
2014,04,20,02,17,7.90
2014,04,20,02,18,8.00
2014,04,20,02,19,8.00
2014,04,20,02,20,8.00
2014,04,20,02,21,8.00
2014,04,20,02,22,8.00
2014,04,20,02,23,8.10
2014,04,20,02,24,8.10
2014,04,20,02,25,8.20
2014,04,20,02,26,8.20
2014,04,20,02,27,8.30
2014,04,20,02,28,8.40
2014,04,20,02,29,8.40
2014,04,20,02,30,8.40
2014,04,20,02,31,8.50
2014,04,20,02,32,8.50
2014,04,20,02,33,8.50
2014,04,20,02,34,8.50
2014,04,20,02,35,8.50
2014,04,20,02,36,8.50
2014,04,20,02,37,8.50
2014,04,20,02,38,8.50
2014,04,20,02,39,8.50
2014,04,20,02,40,8.50
2014,04,20,02,41,8.50
2014,04,20,02,42,8.40
2014,04,20,02,43,8.40
2014,04,20,02,44,8.40
2014,04,20,02,45,8.30
2014,04,20,02,46,8.30
2014,04,20,02,47,8.30
2014,04,20,02,48,8.20
2014,04,20,02,49,8.20
2014,04,20,02,50,8.20
2014,04,20,02,51,8.10
2014,04,20,02,52,8.10
2014,04,20,02,53,8.00
2014,04,20,02,54,8.00
2014,04,20,02,55,8.00
2014,04,20,02,56,7.90
2014,04,20,02,57,7.90
2014,04,20,02,58,7.90
2014,04,20,02,59,7.80
2014,04,20,03,00,7.80
2014,04,20,03,01,7.80
2014,04,20,03,02,7.80
2014,04,20,03,03,7.80
2014,04,20,03,04,7.70
2014,04,20,03,05,7.70
2014,04,20,03,06,7.70
2014,04,20,03,07,7.70
2014,04,20,03,08,7.60
2014,04,20,03,09,7.60
2014,04,20,03,10,7.60
2014,04,20,03,11,7.60
2014,04,20,03,12,7.60
2014,04,20,03,13,7.50
2014,04,20,03,14,7.50
2014,04,20,03,15,7.50
2014,04,20,03,16,7.50
2014,04,20,03,17,7.50
2014,04,20,03,18,7.50
2014,04,20,03,19,7.50
2014,04,20,03,20,7.50
2014,04,20,03,21,7.50
2014,04,20,03,22,7.50
2014,04,20,03,23,7.50
2014,04,20,03,24,7.50
2014,04,20,03,25,7.50
2014,04,20,03,26,7.50
2014,04,20,03,27,7.60
2014,04,20,03,28,7.60
2014,04,20,03,29,7.60
2014,04,20,03,30,7.60
2014,04,20,03,31,7.60
2014,04,20,03,32,7.60
2014,04,20,03,33,7.60
2014,04,20,03,34,7.70
2014,04,20,03,35,7.70
2014,04,20,03,36,7.60
2014,04,20,03,37,7.60
2014,04,20,03,38,7.60
2014,04,20,03,39,7.70
2014,04,20,03,40,7.70
2014,04,20,03,41,7.70
2014,04,20,03,42,7.70
2014,04,20,03,43,7.70
2014,04,20,03,44,7.70
2014,04,20,03,45,7.70
2014,04,20,03,46,7.80
2014,04,20,03,47,7.80
2014,04,20,03,48,7.80
2014,04,20,03,49,7.80
2014,04,20,03,50,7.80
2014,04,20,03,51,7.80
2014,04,20,03,52,7.80
2014,04,20,03,53,7.90
2014,04,20,03,54,7.90
2014,04,20,03,55,7.90
2014,04,20,03,56,7.90
2014,04,20,03,57,7.90
2014,04,20,03,58,8.00
2014,04,20,03,59,8.00
2014,04,20,04,00,8.00
2014,04,20,04,01,8.00
2014,04,20,04,02,8.00
2014,04,20,04,03,8.00
2014,04,20,04,04,8.00
2014,04,20,04,05,8.00
2014,04,20,04,06,8.00
2014,04,20,04,07,8.00
2014,04,20,04,08,8.00
2014,04,20,04,09,8.00
2014,04,20,04,10,8.00
2014,04,20,04,11,8.00
2014,04,20,04,12,8.00
2014,04,20,04,13,7.90
2014,04,20,04,14,7.90
2014,04,20,04,15,7.90
2014,04,20,04,16,7.90
2014,04,20,04,17,7.90
2014,04,20,04,18,7.90
2014,04,20,04,19,7.90
2014,04,20,04,20,7.90
2014,04,20,04,21,7.80
2014,04,20,04,22,7.80
2014,04,20,04,23,7.80
2014,04,20,04,24,7.80
2014,04,20,04,25,7.80
2014,04,20,04,26,7.80
2014,04,20,04,27,7.80
2014,04,20,04,28,7.80
2014,04,20,04,29,7.80
2014,04,20,04,30,7.80
2014,04,20,04,31,7.80
2014,04,20,04,32,7.80
2014,04,20,04,33,7.80
2014,04,20,04,34,7.80
2014,04,20,04,35,7.80
2014,04,20,04,36,7.80
2014,04,20,04,37,7.80
2014,04,20,04,38,7.80
2014,04,20,04,39,7.80
2014,04,20,04,40,7.80
2014,04,20,04,41,7.80
2014,04,20,04,42,7.80
2014,04,20,04,43,7.80
2014,04,20,04,44,7.80
2014,04,20,04,45,7.80
2014,04,20,04,46,7.80
2014,04,20,04,47,7.80
2014,04,20,04,48,7.80
2014,04,20,04,49,7.80
2014,04,20,04,50,7.80
2014,04,20,04,51,7.80
2014,04,20,04,52,7.80
2014,04,20,04,53,7.80
2014,04,20,04,54,7.80
2014,04,20,04,55,7.80
2014,04,20,04,56,7.80
2014,04,20,04,57,7.80
2014,04,20,04,58,7.80
2014,04,20,04,59,7.80
2014,04,20,05,00,7.80
2014,04,20,05,01,7.80
2014,04,20,05,02,7.80
2014,04,20,05,03,7.80
2014,04,20,05,04,7.80
2014,04,20,05,05,7.80
2014,04,20,05,06,7.80
2014,04,20,05,07,7.80
2014,04,20,05,08,7.80
2014,04,20,05,09,7.80
2014,04,20,05,10,7.80
2014,04,20,05,11,7.80
2014,04,20,05,12,7.80
2014,04,20,05,13,7.80
2014,04,20,05,14,7.80
2014,04,20,05,15,7.80
2014,04,20,05,16,7.80
2014,04,20,05,17,7.70
2014,04,20,05,18,7.70
2014,04,20,05,19,7.70
2014,04,20,05,20,7.70
2014,04,20,05,21,7.70
2014,04,20,05,22,7.70
2014,04,20,05,23,7.70
2014,04,20,05,24,7.70
2014,04,20,05,25,7.70
2014,04,20,05,26,7.70
2014,04,20,05,27,7.70
2014,04,20,05,28,7.70
2014,04,20,05,29,7.70
2014,04,20,05,30,7.70
2014,04,20,05,31,7.70
2014,04,20,05,32,7.70
2014,04,20,05,33,7.70
2014,04,20,05,34,7.70
2014,04,20,05,35,7.70
2014,04,20,05,36,7.70
2014,04,20,05,37,7.80
2014,04,20,05,38,7.80
2014,04,20,05,39,7.80
2014,04,20,05,40,7.80
2014,04,20,05,41,7.80
2014,04,20,05,42,7.80
2014,04,20,05,43,7.80
2014,04,20,05,44,7.80
2014,04,20,05,45,7.80
2014,04,20,05,46,7.80
2014,04,20,05,47,7.80
2014,04,20,05,48,7.80
2014,04,20,05,49,7.80
2014,04,20,05,50,7.80
2014,04,20,05,51,7.80
2014,04,20,05,52,7.80
2014,04,20,05,53,7.80
2014,04,20,05,54,7.80
2014,04,20,05,55,7.80
2014,04,20,05,56,7.80
2014,04,20,05,57,7.80
2014,04,20,05,58,7.80
2014,04,20,05,59,7.80
2014,04,20,06,00,7.80
2014,04,20,06,01,7.70
2014,04,20,06,02,7.70
2014,04,20,06,03,7.70
2014,04,20,06,04,7.70
2014,04,20,06,05,7.70
2014,04,20,06,06,7.70
2014,04,20,06,07,7.70
2014,04,20,06,08,7.70
2014,04,20,06,09,7.70
2014,04,20,06,10,7.70
2014,04,20,06,11,7.70
2014,04,20,06,12,7.70
2014,04,20,06,13,7.70
2014,04,20,06,14,7.70
2014,04,20,06,15,7.70
2014,04,20,06,16,7.70
2014,04,20,06,17,7.70
2014,04,20,06,18,7.70
2014,04,20,06,19,7.70
2014,04,20,06,20,7.70
2014,04,20,06,21,7.70
2014,04,20,06,22,7.70
2014,04,20,06,23,7.70
2014,04,20,06,24,7.70
2014,04,20,06,25,7.70
2014,04,20,06,26,7.70
2014,04,20,06,27,7.70
2014,04,20,06,28,7.70
2014,04,20,06,29,7.70
2014,04,20,06,30,7.60
2014,04,20,06,31,7.60
2014,04,20,06,32,7.60
2014,04,20,06,33,7.60
2014,04,20,06,34,7.60
2014,04,20,06,35,7.60
2014,04,20,06,36,7.60
2014,04,20,06,37,7.60
2014,04,20,06,38,7.60
2014,04,20,06,39,7.60
2014,04,20,06,40,7.60
2014,04,20,06,41,7.60
2014,04,20,06,42,7.60
2014,04,20,06,43,7.60
2014,04,20,06,44,7.60
2014,04,20,06,45,7.60
2014,04,20,06,46,7.50
2014,04,20,06,47,7.50
2014,04,20,06,48,7.50
2014,04,20,06,49,7.50
2014,04,20,06,50,7.50
2014,04,20,06,51,7.50
2014,04,20,06,52,7.50
2014,04,20,06,53,7.50
2014,04,20,06,54,7.50
2014,04,20,06,55,7.50
2014,04,20,06,56,7.60
2014,04,20,06,57,7.60
2014,04,20,06,58,7.60
2014,04,20,06,59,7.60
2014,04,20,07,00,7.60
2014,04,20,07,01,7.60
2014,04,20,07,02,7.60
2014,04,20,07,03,7.60
2014,04,20,07,04,7.60
2014,04,20,07,05,7.70
2014,04,20,07,06,7.70
2014,04,20,07,07,7.70
2014,04,20,07,08,7.70
2014,04,20,07,09,7.70
2014,04,20,07,10,7.70
2014,04,20,07,11,7.70
2014,04,20,07,12,7.80
2014,04,20,07,13,7.80
2014,04,20,07,14,7.80
2014,04,20,07,15,7.80
2014,04,20,07,16,7.80
2014,04,20,07,17,7.80
2014,04,20,07,18,7.80
2014,04,20,07,19,7.80
2014,04,20,07,20,7.80
2014,04,20,07,21,7.80
2014,04,20,07,22,7.80
2014,04,20,07,23,7.80
2014,04,20,07,24,7.80
2014,04,20,07,25,7.80
2014,04,20,07,26,7.80
2014,04,20,07,27,7.80
2014,04,20,07,28,7.80
2014,04,20,07,29,7.80
2014,04,20,07,30,7.80
2014,04,20,07,31,7.80
2014,04,20,07,32,7.80
2014,04,20,07,33,7.80
2014,04,20,07,34,7.80
2014,04,20,07,35,7.80
2014,04,20,07,36,7.80
2014,04,20,07,37,7.80
2014,04,20,07,38,7.90
2014,04,20,07,39,7.90
2014,04,20,07,40,7.90
2014,04,20,07,41,7.90
2014,04,20,07,42,7.90
2014,04,20,07,43,7.90
2014,04,20,07,44,7.90
2014,04,20,07,45,7.90
2014,04,20,07,46,7.90
2014,04,20,07,47,7.90
2014,04,20,07,48,7.90
2014,04,20,07,49,7.90
2014,04,20,07,50,7.90
2014,04,20,07,51,7.90
2014,04,20,07,52,7.90
2014,04,20,07,53,7.90
2014,04,20,07,54,7.90
2014,04,20,07,55,8.00
2014,04,20,07,56,8.00
2014,04,20,07,57,8.00
2014,04,20,07,58,8.00
2014,04,20,07,59,8.00
2014,04,20,08,00,8.00
2014,04,20,08,01,8.00
2014,04,20,08,02,8.00
2014,04,20,08,03,8.00
2014,04,20,08,04,8.00
2014,04,20,08,05,8.00
2014,04,20,08,06,8.00
2014,04,20,08,07,8.00
2014,04,20,08,08,8.10
2014,04,20,08,09,8.10
2014,04,20,08,10,8.10
2014,04,20,08,11,8.10
2014,04,20,08,12,8.10
2014,04,20,08,13,8.10
2014,04,20,08,14,8.10
2014,04,20,08,15,8.10
2014,04,20,08,16,8.10
2014,04,20,08,17,8.10
2014,04,20,08,18,8.10
2014,04,20,08,19,8.00
2014,04,20,08,20,8.00
2014,04,20,08,21,8.00
2014,04,20,08,22,8.10
2014,04,20,08,23,8.10
2014,04,20,08,24,8.10
2014,04,20,08,25,8.10
2014,04,20,08,26,8.10
2014,04,20,08,27,8.10
2014,04,20,08,28,8.10
2014,04,20,08,29,8.10
2014,04,20,08,30,8.20
2014,04,20,08,31,8.20
2014,04,20,08,32,8.20
2014,04,20,08,33,8.20
2014,04,20,08,34,8.20
2014,04,20,08,35,8.20
2014,04,20,08,36,8.20
2014,04,20,08,37,8.20
2014,04,20,08,38,8.20
2014,04,20,08,39,8.20
2014,04,20,08,40,8.20
2014,04,20,08,41,8.20
2014,04,20,08,42,8.20
2014,04,20,08,43,8.20
2014,04,20,08,44,8.20
2014,04,20,08,45,8.20
2014,04,20,08,46,8.20
2014,04,20,08,47,8.20
2014,04,20,08,48,8.20
2014,04,20,08,49,8.30
2014,04,20,08,50,8.20
2014,04,20,08,51,8.20
2014,04,20,08,52,8.30
2014,04,20,08,53,8.30
2014,04,20,08,54,8.30
2014,04,20,08,55,8.30
2014,04,20,08,56,8.30
2014,04,20,08,57,8.30
2014,04,20,08,58,8.30
2014,04,20,08,59,8.30
2014,04,20,09,00,8.30
2014,04,20,09,01,8.30
2014,04,20,09,02,8.30
2014,04,20,09,03,8.30
2014,04,20,09,04,8.40
2014,04,20,09,05,8.40
2014,04,20,09,06,8.40
2014,04,20,09,07,8.40
2014,04,20,09,08,8.40
2014,04,20,09,09,8.40
2014,04,20,09,10,8.50
2014,04,20,09,11,8.50
2014,04,20,09,12,8.50
2014,04,20,09,13,8.50
2014,04,20,09,14,8.50
2014,04,20,09,15,8.60
2014,04,20,09,16,8.60
2014,04,20,09,17,8.70
2014,04,20,09,18,8.70
2014,04,20,09,19,8.70
2014,04,20,09,20,8.70
2014,04,20,09,21,8.70
2014,04,20,09,22,8.70
2014,04,20,09,23,8.70
2014,04,20,09,24,8.70
2014,04,20,09,25,8.80
2014,04,20,09,26,8.80
2014,04,20,09,27,8.90
2014,04,20,09,28,8.90
2014,04,20,09,29,9.00
2014,04,20,09,30,9.00
2014,04,20,09,31,9.00
2014,04,20,09,32,9.00
2014,04,20,09,33,9.00
2014,04,20,09,34,9.10
2014,04,20,09,35,9.00
2014,04,20,09,36,9.00
2014,04,20,09,37,9.00
2014,04,20,09,38,9.00
2014,04,20,09,39,9.00
2014,04,20,09,40,9.00
2014,04,20,09,41,9.00
2014,04,20,09,42,9.00
2014,04,20,09,43,9.00
2014,04,20,09,44,9.00
2014,04,20,09,45,9.00
2014,04,20,09,46,9.10
2014,04,20,09,47,9.10
2014,04,20,09,48,9.20
2014,04,20,09,49,9.20
2014,04,20,09,50,9.30
2014,04,20,09,51,9.30
2014,04,20,09,52,9.40
2014,04,20,09,53,9.50
2014,04,20,09,54,9.50
2014,04,20,09,55,9.50
2014,04,20,09,56,9.60
2014,04,20,09,57,9.70
2014,04,20,09,58,9.70
2014,04,20,09,59,9.70
2014,04,20,10,00,9.80
2014,04,20,10,01,9.80
2014,04,20,10,02,9.90
2014,04,20,10,03,9.90
2014,04,20,10,04,9.90
2014,04,20,10,05,9.90
2014,04,20,10,06,9.80
2014,04,20,10,07,9.80
2014,04,20,10,08,9.80
2014,04,20,10,09,9.80
2014,04,20,10,10,9.70
2014,04,20,10,11,9.70
2014,04,20,10,12,9.70
2014,04,20,10,13,9.70
2014,04,20,10,14,9.70
2014,04,20,10,15,9.70
2014,04,20,10,16,9.70
2014,04,20,10,17,9.70
2014,04,20,10,18,9.70
2014,04,20,10,19,9.70
2014,04,20,10,20,9.70
2014,04,20,10,21,9.70
2014,04,20,10,22,9.70
2014,04,20,10,23,9.70
2014,04,20,10,24,9.70
2014,04,20,10,25,9.70
2014,04,20,10,26,9.80
2014,04,20,10,27,9.80
2014,04,20,10,28,9.90
2014,04,20,10,29,9.90
2014,04,20,10,30,9.90
2014,04,20,10,31,9.90
2014,04,20,10,32,9.90
2014,04,20,10,33,10.00
2014,04,20,10,34,10.10
2014,04,20,10,35,10.10
2014,04,20,10,36,10.10
2014,04,20,10,37,10.10
2014,04,20,10,38,10.10
2014,04,20,10,39,10.10
2014,04,20,10,40,10.10
2014,04,20,10,41,10.10
2014,04,20,10,42,10.10
2014,04,20,10,43,10.10
2014,04,20,10,44,10.10
2014,04,20,10,45,10.10
2014,04,20,10,46,10.10
2014,04,20,10,47,10.10
2014,04,20,10,48,10.10
2014,04,20,10,49,10.10
2014,04,20,10,50,10.10
2014,04,20,10,51,10.10
2014,04,20,10,52,10.10
2014,04,20,10,53,10.10
2014,04,20,10,54,10.10
2014,04,20,10,55,10.20
2014,04,20,10,56,10.20
2014,04,20,10,57,10.20
2014,04,20,10,58,10.30
2014,04,20,10,59,10.30
2014,04,20,11,00,10.30
2014,04,20,11,01,10.40
2014,04,20,11,02,10.40
2014,04,20,11,03,10.40
2014,04,20,11,04,10.40
2014,04,20,11,05,10.40
2014,04,20,11,06,10.40
2014,04,20,11,07,10.40
2014,04,20,11,08,10.40
2014,04,20,11,09,10.40
2014,04,20,11,10,10.40
2014,04,20,11,11,10.40
2014,04,20,11,12,10.40
2014,04,20,11,13,10.40
2014,04,20,11,14,10.40
2014,04,20,11,15,10.40
2014,04,20,11,16,10.40
2014,04,20,11,17,10.30
2014,04,20,11,18,10.30
2014,04,20,11,19,10.30
2014,04,20,11,20,10.30
2014,04,20,11,21,10.30
2014,04,20,11,22,10.30
2014,04,20,11,23,10.30
2014,04,20,11,24,10.30
2014,04,20,11,25,10.40
2014,04,20,11,26,10.40
2014,04,20,11,27,10.40
2014,04,20,11,28,10.40
2014,04,20,11,29,10.40
2014,04,20,11,30,10.60
2014,04,20,11,31,10.60
2014,04,20,11,32,10.60
2014,04,20,11,33,10.60
2014,04,20,11,34,10.60
2014,04,20,11,35,10.70
2014,04,20,11,36,10.70
2014,04,20,11,37,10.80
2014,04,20,11,38,10.80
2014,04,20,11,39,10.90
2014,04,20,11,40,10.90
2014,04,20,11,41,10.90
2014,04,20,11,42,11.00
2014,04,20,11,43,11.10
2014,04,20,11,44,11.10
2014,04,20,11,45,11.10
2014,04,20,11,46,11.20
2014,04,20,11,47,11.20
2014,04,20,11,48,11.30
2014,04,20,11,49,11.30
2014,04,20,11,50,11.30
2014,04,20,11,51,11.30
2014,04,20,11,52,11.30
2014,04,20,11,53,11.30
2014,04,20,11,54,11.40
2014,04,20,11,55,11.40
2014,04,20,11,56,11.40
2014,04,20,11,57,11.40
2014,04,20,11,58,11.40
2014,04,20,11,59,11.50
2014,04,20,12,00,11.60
2014,04,20,12,01,11.60
2014,04,20,12,02,11.60
2014,04,20,12,03,11.60
2014,04,20,12,04,11.60
2014,04,20,12,05,11.60
2014,04,20,12,06,11.60
2014,04,20,12,07,11.60
2014,04,20,12,08,11.60
2014,04,20,12,09,11.70
2014,04,20,12,10,11.70
2014,04,20,12,11,11.70
2014,04,20,12,12,11.70
2014,04,20,12,13,11.70
2014,04,20,12,14,11.60
2014,04,20,12,15,11.60
2014,04,20,12,16,11.60
2014,04,20,12,17,11.60
2014,04,20,12,18,11.60
2014,04,20,12,19,11.60
2014,04,20,12,20,11.60
2014,04,20,12,21,11.60
2014,04,20,12,22,11.60
2014,04,20,12,23,11.60
2014,04,20,12,24,11.70
2014,04,20,12,25,11.70
2014,04,20,12,26,11.70
2014,04,20,12,27,11.80
2014,04,20,12,28,11.80
2014,04,20,12,29,11.80
2014,04,20,12,30,11.80
2014,04,20,12,31,11.80
2014,04,20,12,32,11.80
2014,04,20,12,33,11.90
2014,04,20,12,34,11.90
2014,04,20,12,35,11.90
2014,04,20,12,36,11.90
2014,04,20,12,37,12.00
2014,04,20,12,38,12.00
2014,04,20,12,39,12.00
2014,04,20,12,40,12.00
2014,04,20,12,41,12.00
2014,04,20,12,42,12.00
2014,04,20,12,43,12.00
2014,04,20,12,44,12.00
2014,04,20,12,45,12.00
2014,04,20,12,46,12.00
2014,04,20,12,47,12.00
2014,04,20,12,48,11.90
2014,04,20,12,49,11.90
2014,04,20,12,50,11.90
2014,04,20,12,51,11.90
2014,04,20,12,52,11.90
2014,04,20,12,53,11.90
2014,04,20,12,54,11.90
2014,04,20,12,55,11.90
2014,04,20,12,56,11.90
2014,04,20,12,57,11.90
2014,04,20,12,58,11.90
2014,04,20,12,59,11.90
2014,04,20,13,00,11.80
2014,04,20,13,01,11.80
2014,04,20,13,02,11.70
2014,04,20,13,03,11.70
2014,04,20,13,04,11.60
2014,04,20,13,05,11.60
2014,04,20,13,06,11.60
2014,04,20,13,07,11.60
2014,04,20,13,08,11.50
2014,04,20,13,09,11.40
2014,04,20,13,10,11.50
2014,04,20,13,11,11.60
2014,04,20,13,12,11.60
2014,04,20,13,13,11.60
2014,04,20,13,14,11.60
2014,04,20,13,15,11.60
2014,04,20,13,16,11.60
2014,04,20,13,17,11.60
2014,04,20,13,18,11.60
2014,04,20,13,19,11.70
2014,04,20,13,20,11.70
2014,04,20,13,21,11.70
2014,04,20,13,22,11.80
2014,04,20,13,23,11.80
2014,04,20,13,24,11.80
2014,04,20,13,25,11.80
2014,04,20,13,26,11.80
2014,04,20,13,27,11.80
2014,04,20,13,28,11.80
2014,04,20,13,29,11.80
2014,04,20,13,30,11.80
2014,04,20,13,31,11.80
2014,04,20,13,32,11.80
2014,04,20,13,33,11.80
2014,04,20,13,34,11.80
2014,04,20,13,35,11.80
2014,04,20,13,36,11.90
2014,04,20,13,37,11.90
2014,04,20,13,38,12.00
2014,04,20,13,39,12.00
2014,04,20,13,40,12.00
2014,04,20,13,41,12.00
2014,04,20,13,42,12.00
2014,04,20,13,43,12.10
2014,04,20,13,44,12.10
2014,04,20,13,45,12.10
2014,04,20,13,46,12.10
2014,04,20,13,47,12.10
2014,04,20,13,48,12.20
2014,04,20,13,49,12.20
2014,04,20,13,50,12.20
2014,04,20,13,51,12.20
2014,04,20,13,52,12.30
2014,04,20,13,53,12.30
2014,04,20,13,54,12.30
2014,04,20,13,55,12.30
2014,04,20,13,56,12.30
2014,04,20,13,57,12.40
2014,04,20,13,58,12.40
2014,04,20,13,59,12.40
2014,04,20,14,00,12.40
2014,04,20,14,01,12.40
2014,04,20,14,02,12.40
2014,04,20,14,03,12.40
2014,04,20,14,04,12.40
2014,04,20,14,05,12.40
2014,04,20,14,06,12.40
2014,04,20,14,07,12.40
2014,04,20,14,08,12.40
2014,04,20,14,09,12.40
2014,04,20,14,10,12.30
2014,04,20,14,11,12.30
2014,04,20,14,12,12.30
2014,04,20,14,13,12.30
2014,04,20,14,14,12.30
2014,04,20,14,15,12.30
2014,04,20,14,16,12.30
2014,04,20,14,17,12.30
2014,04,20,14,18,12.30
2014,04,20,14,19,12.30
2014,04,20,14,20,12.30
2014,04,20,14,21,12.30
2014,04,20,14,22,12.30
2014,04,20,14,23,12.30
2014,04,20,14,24,12.30
2014,04,20,14,25,12.30
2014,04,20,14,26,12.30
2014,04,20,14,27,12.20
2014,04,20,14,28,12.20
2014,04,20,14,29,12.20
2014,04,20,14,30,12.20
2014,04,20,14,31,12.20
2014,04,20,14,32,12.20
2014,04,20,14,33,12.20
2014,04,20,14,34,12.20
2014,04,20,14,35,12.20
2014,04,20,14,36,12.20
2014,04,20,14,37,12.20
2014,04,20,14,38,12.20
2014,04,20,14,39,12.10
2014,04,20,14,40,12.10
2014,04,20,14,41,12.10
2014,04,20,14,42,12.10
2014,04,20,14,43,12.10
2014,04,20,14,44,12.10
2014,04,20,14,45,12.10
2014,04,20,14,46,12.10
2014,04,20,14,47,12.10
2014,04,20,14,48,12.10
2014,04,20,14,49,12.10
2014,04,20,14,50,12.10
2014,04,20,14,51,12.10
2014,04,20,14,52,12.10
2014,04,20,14,53,12.20
2014,04,20,14,54,12.20
2014,04,20,14,55,12.20
2014,04,20,14,56,12.20
2014,04,20,14,57,12.20
2014,04,20,14,58,12.20
2014,04,20,14,59,12.20
2014,04,20,15,00,12.20
2014,04,20,15,01,12.20
2014,04,20,15,02,12.20
2014,04,20,15,03,12.30
2014,04,20,15,04,12.30
2014,04,20,15,05,12.30
2014,04,20,15,06,12.30
2014,04,20,15,07,12.30
2014,04,20,15,08,12.30
2014,04,20,15,09,12.30
2014,04,20,15,10,12.30
2014,04,20,15,11,12.30
2014,04,20,15,12,12.30
2014,04,20,15,13,12.30
2014,04,20,15,14,12.30
2014,04,20,15,15,12.30
2014,04,20,15,16,12.30
2014,04,20,15,17,12.30
2014,04,20,15,18,12.40
2014,04,20,15,19,12.40
2014,04,20,15,20,12.40
2014,04,20,15,21,12.40
2014,04,20,15,22,12.40
2014,04,20,15,23,12.40
2014,04,20,15,24,12.40
2014,04,20,15,25,12.30
2014,04,20,15,26,12.30
2014,04,20,15,27,12.30
2014,04,20,15,28,12.30
2014,04,20,15,29,12.30
2014,04,20,15,30,12.30
2014,04,20,15,31,12.30
2014,04,20,15,32,12.20
2014,04,20,15,33,12.10
2014,04,20,15,34,12.10
2014,04,20,15,35,12.00
2014,04,20,15,36,12.00
2014,04,20,15,37,11.90
2014,04,20,15,38,11.90
2014,04,20,15,39,11.90
2014,04,20,15,40,11.80
2014,04,20,15,41,11.80
2014,04,20,15,42,11.80
2014,04,20,15,43,11.80
2014,04,20,15,44,11.80
2014,04,20,15,45,11.80
2014,04,20,15,46,11.80
2014,04,20,15,47,11.80
2014,04,20,15,48,11.80
2014,04,20,15,49,11.80
2014,04,20,15,50,11.80
2014,04,20,15,51,11.80
2014,04,20,15,52,11.80
2014,04,20,15,53,11.80
2014,04,20,15,54,11.80
2014,04,20,15,55,11.80
2014,04,20,15,56,11.90
2014,04,20,15,57,11.90
2014,04,20,15,58,11.90
2014,04,20,15,59,12.00
2014,04,20,16,00,12.00
2014,04,20,16,01,12.00
2014,04,20,16,02,12.00
2014,04,20,16,03,12.00
2014,04,20,16,04,12.00
2014,04,20,16,05,12.10
2014,04,20,16,06,12.10
2014,04,20,16,07,12.20
2014,04,20,16,08,12.20
2014,04,20,16,09,12.20
2014,04,20,16,10,12.20
2014,04,20,16,11,12.20
2014,04,20,16,12,12.20
2014,04,20,16,13,12.20
2014,04,20,16,14,12.20
2014,04,20,16,15,12.20
2014,04,20,16,16,12.30
2014,04,20,16,17,12.30
2014,04,20,16,18,12.30
2014,04,20,16,19,12.30
2014,04,20,16,20,12.30
2014,04,20,16,21,12.30
2014,04,20,16,22,12.30
2014,04,20,16,23,12.30
2014,04,20,16,24,12.30
2014,04,20,16,25,12.30
2014,04,20,16,26,12.30
2014,04,20,16,27,12.30
2014,04,20,16,28,12.30
2014,04,20,16,29,12.30
2014,04,20,16,30,12.30
2014,04,20,16,31,12.30
2014,04,20,16,32,12.30
2014,04,20,16,33,12.30
2014,04,20,16,34,12.30
2014,04,20,16,35,12.30
2014,04,20,16,36,12.40
2014,04,20,16,37,12.40
2014,04,20,16,38,12.40
2014,04,20,16,39,12.50
2014,04,20,16,40,12.50
2014,04,20,16,41,12.50
2014,04,20,16,42,12.50
2014,04,20,16,43,12.60
2014,04,20,16,44,12.60
2014,04,20,16,45,12.60
2014,04,20,16,46,12.60
2014,04,20,16,47,12.70
2014,04,20,16,48,12.70
2014,04,20,16,49,12.80
2014,04,20,16,50,12.80
2014,04,20,16,51,12.80
2014,04,20,16,52,12.80
2014,04,20,16,53,12.90
2014,04,20,16,54,12.90
2014,04,20,16,55,12.90
2014,04,20,16,56,13.00
2014,04,20,16,57,13.00
2014,04,20,16,58,12.90
2014,04,20,16,59,13.00
2014,04,20,17,00,13.00
2014,04,20,17,01,13.00
2014,04,20,17,02,13.00
2014,04,20,17,03,13.10
2014,04,20,17,04,13.10
2014,04,20,17,05,13.10
2014,04,20,17,06,13.10
2014,04,20,17,07,13.20
2014,04,20,17,08,13.30
2014,04,20,17,09,13.30
2014,04,20,17,10,13.30
2014,04,20,17,11,13.30
2014,04,20,17,12,13.30
2014,04,20,17,13,13.30
2014,04,20,17,14,13.30
2014,04,20,17,15,13.30
2014,04,20,17,16,13.30
2014,04,20,17,17,13.20
2014,04,20,17,18,13.10
2014,04,20,17,19,13.10
2014,04,20,17,20,13.00
2014,04,20,17,21,12.90
2014,04,20,17,22,12.90
2014,04,20,17,23,13.00
2014,04,20,17,24,13.00
2014,04,20,17,25,13.00
2014,04,20,17,26,13.00
2014,04,20,17,27,13.10
2014,04,20,17,28,13.10
2014,04,20,17,29,13.20
2014,04,20,17,30,13.20
2014,04,20,17,31,13.20
2014,04,20,17,32,13.20
2014,04,20,17,33,13.20
2014,04,20,17,34,13.10
2014,04,20,17,35,13.10
2014,04,20,17,36,13.00
2014,04,20,17,37,12.80
2014,04,20,17,38,12.80
2014,04,20,17,39,12.60
2014,04,20,17,40,12.60
2014,04,20,17,41,12.50
2014,04,20,17,42,12.40
2014,04,20,17,43,12.40
2014,04,20,17,44,12.30
2014,04,20,17,45,12.30
2014,04,20,17,46,12.30